Showing default

COSMOS 88, 1586

Orbit data source: Space-Track

COSMOS 88, 1586 is a payload satellite owned by OKB-10 (CIS) in LEO that was launched on Sat, 18 Sep 1965 UTC via a KOSMOS 65S3 launch vehicle from the Tyuratam Missile And Space Complex (TTMTR). Payloads include a variety of satellites, spacecraft, and rockets equipped with specific instruments for various scientific and technological missions. These include communications satellites like Starlink; space stations such as the ISS; scientific satellites like the Hubble; Earth observation satellites from companies like Planet Labs, Umbra, and HawkEye 360; GPS; miniature CubeSats for education and research; and military/defense satellites.

Loading next visibility...
COSMOS 88 details
Identifier
1586, 1965-073C
Orbit
LEO
Last TLE update19 hours ago
Origin
Flag of CISOKB-10 (CIS)
ManufacturerOKB-10
MissionDefense Communications
Bus & MotorSTRELA-1 11F610, Unknown motor
Mass50 kg wet, 50 kg dry
Launch date (UTC)
1965-09-18 (59 years ago)
Launch vehicle
KOSMOS 65S3
Launch site
Tyuratam Missile And Space Complex (TTMTR)
Object type
Payload
Rocket body
Debris
Shape & HBRPoly, 0.8 m
Radar Cross Section0.731 m², Medium (>0.1 m² and < 1m²)

Expand to show TLE details & history

TLE from 19 hours ago
0 COSMOS 88
1 01586U 65073C   24355.88236281 -.00000094  00000-0  75249-6 0  9995
2 01586  56.0621  31.4775 0188506 163.8612   8.1043 12.43336722690929
Epoch: 2024-12-20T21:10Z
Definitive object data (Epoch: 2024-12-20T21:10:36.146Z)
Latitude6.3611°
Longitude159.60462°
Altitude1,346.115 km
Speed7.253 km/s
True Right ascension13h 48m 47s
True Declination6° 19' 34"
Sunlit
Object was in daylight at TLE epoch
Visualization TLE readout
Latitude54.12611°
Longitude93.97466°
Altitude1,428.066 km
Speed7.185 km/s
Apparent Right ascension06h 09m 30s
Apparent Declination19° 04' 14"
Sunlit
Object is in full shadow
Visualization observer readout
Local Sidereal Time15:09:12
Azimuth315.411° NNW
Elevation-17.592°
Doppler factor1
Orbital elements
Apogee altitude1,640.676 km
Perigee altitude1,343.95 km
Semi-major axis7,870.45 km
Eccentricity0.0188506
Inclination56.0621°
RAAN31.4775°
Arg. of periapsis163.8612°
True anomaly8.41609°
Mean anomaly8.1043°
Eccentric anomaly8.25946°
Mean motion3.10845 °/min
BSTAR7.5249e-7
Orbital period115.81 mins
Loading maneuver chart data...
Loading historical data...
Loading historical data...
Loading historical data...
Loading historical data...
Loading historical data...
Loading historical data...
Loading historical data...

COSMOS 88 Visibility forecast

Observer location: undefined°, undefined

Span
Click to sort rows by Start time (UTC) header in descending order
Start Az.
Max El. time (UTC)
Max El. Az.
Max El.
End time (UTC)
End Az.
15 mins2024-12-22 03:12:48.155Z175.813° S2024-12-22 03:20:48.155Z119.18° SE27.364°2024-12-22 03:27:48.155Z64.915° ENE
17 mins2024-12-22 05:12:48.155Z230.656° WSW2024-12-22 05:20:48.155Z283.891° WNW44.19°2024-12-22 05:29:48.155Z43.885° NE
14 mins2024-12-22 07:16:48.155Z282.951° WNW2024-12-22 07:23:48.155Z341.759° N29.212°2024-12-22 07:30:48.155Z40.613° NE
12 mins2024-12-22 09:21:48.155Z319.958° NNW2024-12-22 09:27:48.155Z12.658° NNE25.636°2024-12-22 09:33:48.155Z62.714° ENE
14 mins2024-12-22 11:23:48.155Z322.442° NNW2024-12-22 11:30:48.155Z45.722° ENE39.398°2024-12-22 11:37:48.155Z111.327° ESE
14 mins2024-12-22 13:24:48.155Z300.689° NW2024-12-22 13:30:48.155Z244.163° WSW34.968°2024-12-22 13:38:48.155Z167.718° S
|